Lakeville, MN

12:20 PM CDT on May 27, 2017 (GMT -0500)
Airlake

Weather History for KLVN - March, 2014

Change the Weather History Date:

Thursday, March 27, 2014

  Actual Average Record
Temperature  
Mean Temperature 34 °F -  
Max Temperature 37 °F 47 °F 71 °F (1991)
Min Temperature 30 °F 26 °F 5 °F (1998)
Degree Days  
Heating Degree Days 32    
Moisture  
Dew Point 33 °F    
Average Humidity 95    
Maximum Humidity 100    
Minimum Humidity 65    
Precipitation  
Precipitation 0.33 in - - ()
Sea Level Pressure  
Sea Level Pressure 29.53 in    
Wind  
Wind Speed 8 mph (ESE)    
Max Wind Speed 18 mph    
Max Gust Speed 28 mph    
Visibility 5 miles    
Events Rain , Snow , Thunderstorm    
Averages and records for this station are not official NWS values.
T = Trace of Precipitation, MM = Missing Value Source: NWS Daily Summary

Daily Weather History Graph

Daily Weather History Graph

Search for Another Location

Airport or City:

Trip Planner

Search our weather history database for the weather conditions in past years. The results will help you decide how hot, cold, wet, or windy it might be!

Date:

Astronomy

Mar. 27, 2014 Rise Set
Actual Time 7:03 AM CDT 7:34 PM CDT
Civil Twilight 6:33 AM CDT 8:03 PM CDT
Nautical Twilight 5:59 AM CDT 8:38 PM CDT
Astronomical Twilight 5:23 AM CDT 9:14 PM CDT
Moon 5:02 AM CDT 4:15 PM CDT
Length of Visible Light 13h 29m
Length of Day
12h 31m
Waning Crescent, 13% of the Moon is Illuminated
Mar 27
Waning Crescent
Mar 30
New
Apr 7
First Quarter
Apr 15
Full
Apr 22
Last Quarter

Hourly Weather History & Observations

Time (CDT) Temp. Windchill Dew Point Humidity Pressure Visibility Wind Dir Wind Speed Gust Speed Precip Events Conditions
12:18 AM 37.4 °F 32.1 °F 26.6 °F 65% 29.57 in 10.0 mi SE 6.9 mph - N/A   Overcast
12:37 AM 37.4 °F 30.3 °F 28.4 °F 70% 29.57 in 10.0 mi SSE 10.4 mph - N/A   Overcast
12:58 AM 37.4 °F 29.8 °F 28.4 °F 70% 29.56 in 10.0 mi SSE 11.5 mph - N/A   Overcast
1:17 AM 37.4 °F 30.8 °F 28.4 °F 70% 29.56 in 10.0 mi South 9.2 mph 16.1 mph N/A   Overcast
1:38 AM 37.4 °F 32.1 °F 28.4 °F 70% 29.57 in 10.0 mi SSE 6.9 mph - N/A   Overcast
1:58 AM 37.4 °F 31.4 °F 30.2 °F 75% 29.56 in 10.0 mi South 8.1 mph - N/A   Overcast
2:17 AM 37.4 °F 31.4 °F 32.0 °F 81% 29.56 in 10.0 mi South 8.1 mph 17.3 mph N/A   Overcast
2:38 AM 37.4 °F 31.4 °F 33.8 °F 87% 29.56 in 5.0 mi South 8.1 mph - N/A   Overcast
2:58 AM 37.4 °F 31.4 °F 35.6 °F 93% 29.56 in 4.0 mi SSE 8.1 mph - N/A   Overcast
3:17 AM 37.4 °F 31.4 °F 35.6 °F 93% 29.56 in 4.0 mi South 8.1 mph - N/A   Overcast
3:38 AM 37.4 °F 30.8 °F 35.6 °F 93% 29.55 in 4.0 mi South 9.2 mph - N/A   Overcast
3:57 AM 37.4 °F 30.3 °F 37.4 °F 100% 29.54 in 4.0 mi South 10.4 mph 16.1 mph N/A   Overcast
4:18 AM 37.4 °F 32.1 °F 37.4 °F 100% 29.54 in 4.0 mi South 6.9 mph - N/A   Overcast
4:37 AM 37.4 °F 31.4 °F 37.4 °F 100% 29.54 in 3.0 mi South 8.1 mph - N/A   Overcast
4:58 AM 37.4 °F 32.1 °F 37.4 °F 100% 29.53 in 3.0 mi South 6.9 mph - N/A   Overcast
5:18 AM 37.4 °F 33.8 °F 35.6 °F 93% 29.53 in 2.5 mi South 4.6 mph - N/A   Overcast
5:37 AM 37.4 °F 32.1 °F 35.6 °F 93% 29.52 in 2.5 mi SSE 6.9 mph - N/A   Overcast
5:58 AM 35.6 °F 29.9 °F 35.6 °F 100% 29.51 in 2.0 mi SSE 6.9 mph - N/A   Overcast
6:17 AM 35.6 °F 30.7 °F 35.6 °F 100% 29.51 in 2.0 mi SSE 5.8 mph - N/A   Overcast
6:38 AM 35.6 °F 32.8 °F 35.6 °F 100% 29.51 in 2.0 mi SSE 3.5 mph - N/A   Overcast
6:58 AM 35.6 °F 31.7 °F 35.6 °F 100% 29.50 in 2.0 mi SSE 4.6 mph - N/A   Overcast
7:17 AM 35.6 °F 31.7 °F 35.6 °F 100% 29.51 in 2.0 mi SSE 4.6 mph - N/A   Overcast
7:38 AM 35.6 °F 31.7 °F 35.6 °F 100% 29.50 in 1.2 mi SE 4.6 mph - N/A   Overcast
7:57 AM 35.6 °F 29.9 °F 35.6 °F 100% 29.50 in 1.5 mi SSE 6.9 mph - N/A   Light Drizzle
8:18 AM 35.6 °F 29.9 °F 35.6 °F 100% 29.50 in 1.8 mi SSE 6.9 mph - N/A   Light Drizzle
8:37 AM 35.6 °F 29.9 °F 35.6 °F 100% 29.49 in 2.0 mi SSE 6.9 mph - N/A   Light Drizzle
8:58 AM 35.6 °F 29.2 °F 35.6 °F 100% 29.49 in 2.0 mi SSE 8.1 mph - N/A   Light Drizzle
9:18 AM 35.6 °F 29.2 °F 35.6 °F 100% 29.49 in 2.5 mi SSE 8.1 mph - N/A Thunderstorm Unknown
9:37 AM 35.6 °F 29.2 °F 35.6 °F 100% 29.49 in 2.0 mi SSE 8.1 mph - N/A   Light Drizzle
9:58 AM 35.6 °F 31.7 °F 35.6 °F 100% 29.50 in 2.0 mi SSE 4.6 mph - N/A   Light Drizzle
10:17 AM 35.6 °F 31.7 °F 35.6 °F 100% 29.49 in 2.0 mi SSE 4.6 mph - N/A   Light Drizzle
10:37 AM 35.6 °F 32.8 °F 35.6 °F 100% 29.49 in 2.0 mi SSE 3.5 mph - N/A   Light Drizzle
10:58 AM 35.6 °F 31.7 °F 35.6 °F 100% 29.48 in 1.5 mi SE 4.6 mph - N/A   Light Drizzle
11:17 AM 35.6 °F 31.7 °F 35.6 °F 100% 29.47 in 1.8 mi SE 4.6 mph - N/A   Light Drizzle
11:38 AM 35.6 °F 29.9 °F 35.6 °F 100% 29.46 in 1.8 mi SE 6.9 mph - N/A   Light Drizzle
11:57 AM 35.6 °F 30.7 °F 35.6 °F 100% 29.45 in 2.0 mi SE 5.8 mph - N/A   Drizzle
12:18 PM 35.6 °F - 35.6 °F 100% 29.46 in 2.0 mi Calm Calm - 0.03 in Rain Rain
12:38 PM 35.6 °F 31.7 °F 35.6 °F 100% 29.46 in 2.5 mi East 4.6 mph - 0.05 in Rain Light Rain
12:57 PM 35.6 °F 32.8 °F 35.6 °F 100% 29.45 in 1.5 mi East 3.5 mph - N/A Rain Rain
1:18 PM 33.8 °F 30.8 °F 33.8 °F 100% 29.47 in 1.0 mi East 3.5 mph - 0.03 in Rain Rain
1:37 PM 33.8 °F 28.6 °F 33.8 °F 100% 29.46 in 1.0 mi East 5.8 mph - 0.07 in Rain Rain
1:58 PM 33.8 °F 30.8 °F 33.8 °F 100% 29.45 in 1.0 mi ENE 3.5 mph - 0.01 in Rain Rain
2:18 PM 33.8 °F - 33.8 °F 100% 29.45 in 1.0 mi Calm Calm - 0.05 in Rain Rain
2:37 PM 35.6 °F 32.8 °F 33.8 °F 93% 29.45 in 2.5 mi NE 3.5 mph - 0.07 in Rain Light Rain
2:58 PM 33.8 °F 29.6 °F 33.8 °F 100% 29.46 in 1.8 mi ENE 4.6 mph - 0.01 in Rain Rain
3:18 PM 33.8 °F 29.6 °F 33.8 °F 100% 29.46 in 2.0 mi ENE 4.6 mph - 0.05 in Rain Rain
3:37 PM 32.0 °F 27.5 °F 32.0 °F 100% 29.46 in 2.5 mi ENE 4.6 mph - 0.07 in Rain Light Rain
3:58 PM 32.0 °F 26.4 °F 30.2 °F 93% 29.46 in 1.2 mi NNE 5.8 mph - 0.01 in Snow Light Snow
4:17 PM 30.2 °F 25.4 °F 30.2 °F 100% 29.46 in 1.0 mi NNE 4.6 mph - 0.04 in Snow Light Snow
4:38 PM 30.2 °F 23.4 °F 30.2 °F 100% 29.45 in 2.0 mi NE 6.9 mph - 0.05 in Snow Light Snow
4:57 PM 30.2 °F 24.3 °F 30.2 °F 100% 29.46 in 1.0 mi North 5.8 mph - N/A Snow Light Snow
5:18 PM 30.2 °F 23.4 °F 30.2 °F 100% 29.47 in 1.2 mi NNE 6.9 mph - 0.01 in Snow Light Snow
5:38 PM 30.2 °F 22.6 °F 30.2 °F 100% 29.47 in 2.5 mi North 8.1 mph - 0.02 in Snow Light Snow
5:57 PM 30.2 °F 22.6 °F 30.2 °F 100% 29.48 in 4.0 mi North 8.1 mph - N/A Snow Light Snow
6:18 PM 32.0 °F 24.8 °F 30.2 °F 93% 29.49 in 5.0 mi North 8.1 mph - N/A   Overcast
6:38 PM 32.0 °F 25.6 °F 30.2 °F 93% 29.50 in 7.0 mi North 6.9 mph - N/A   Overcast
6:57 PM 32.0 °F 24.8 °F 30.2 °F 93% 29.50 in 7.0 mi North 8.1 mph - N/A   Overcast
7:18 PM 32.0 °F 24.2 °F 32.0 °F 100% 29.52 in 7.0 mi North 9.2 mph - N/A   Overcast
7:37 PM 32.0 °F 23.6 °F 32.0 °F 100% 29.54 in 10.0 mi North 10.4 mph - N/A   Overcast
7:58 PM 32.0 °F 21.2 °F 30.2 °F 93% 29.55 in 7.0 mi North 16.1 mph - N/A   Overcast
8:17 PM 32.0 °F 21.6 °F 30.2 °F 93% 29.57 in 10.0 mi North 15.0 mph - N/A   Overcast
8:38 PM 32.0 °F 22.1 °F 30.2 °F 93% 29.58 in 10.0 mi North 13.8 mph 21.9 mph N/A   Overcast
8:58 PM 30.2 °F 18.5 °F 30.2 °F 100% 29.59 in 4.0 mi North 17.3 mph 25.3 mph N/A Snow Light Snow
9:17 PM 30.2 °F 20.8 °F 30.2 °F 100% 29.61 in 10.0 mi North 11.5 mph 24.2 mph N/A   Overcast
9:38 PM 30.2 °F 18.5 °F 28.4 °F 93% 29.62 in 10.0 mi North 17.3 mph 27.6 mph N/A   Overcast
9:58 PM 30.2 °F 18.1 °F 28.4 °F 93% 29.64 in 10.0 mi North 18.4 mph 23.0 mph N/A   Overcast
10:17 PM 30.2 °F 18.9 °F 28.4 °F 93% 29.65 in 10.0 mi North 16.1 mph 27.6 mph N/A   Overcast
10:38 PM 30.2 °F 18.9 °F 26.6 °F 86% 29.67 in 10.0 mi North 16.1 mph 25.3 mph N/A   Overcast
10:57 PM 30.2 °F 18.1 °F 26.6 °F 86% 29.68 in 10.0 mi North 18.4 mph 24.2 mph N/A   Overcast
11:18 PM 30.2 °F 18.5 °F 26.6 °F 86% 29.70 in 10.0 mi North 17.3 mph 25.3 mph N/A   Overcast
11:38 PM 30.2 °F 18.5 °F 26.6 °F 86% 29.71 in 10.0 mi North 17.3 mph 23.0 mph N/A   Overcast
11:57 PM 30.2 °F 18.5 °F 26.6 °F 86% 29.73 in 10.0 mi North 17.3 mph 24.2 mph N/A   Overcast